TIANWANG 1A (TW-1A)
1 40928U 15051D   19247.80611943  .00004369  00000-0  10732-3 0  9998
2 40928  97.1400 277.3754 0011846 141.7523 292.4119 15.41118285221205
LAPAN A2
1 40931U 15052B   19247.63149343  .00000508  00000-0 -18355-4 0  9996
2 40931   5.9930 220.7492 0013038 180.1577 179.9020 14.76611073212802
LQSAT
1 40958U 15057A   19247.74652360 -.00000000  00000-0  76525-5 0  9991
2 40958  97.8928 314.8109 0017943 355.4741   4.6302 14.73087454210292
CHUBUSAT 2
1 41338U 16012B   19247.74009169 +.00000322 +00000-0 +18307-4 0  9998
2 41338 031.0042 008.7557 0013637 156.7091 203.4164 15.00173274194646
CHUBUSAT 3
1 41339U 16012C   19247.76701143  .00000364  00000-0  21510-4 0  9998
2 41339  31.0115   6.5752 0013322 164.2223 195.8829 15.00347529194641
OUFTI-1
1 41458U 16025C   19247.79822164  .00002049  00000-0  10658-3 0  9996
2 41458  98.1010 338.6145 0167450  94.4991 267.5384 15.05983771184321
E-STAR-2
1 41459U 16025D   19247.89988583 +.00002270 +00000-0 +11814-3 0  9997
2 41459 098.1029 338.3411 0169169 095.5933 266.4606 15.05615671184317
AAUSAT 4
1 41460U 16025E   19247.84328930  .00003630  00000-0  18269-3 0  9990
2 41460  98.0965 339.7190 0158508  87.7396 274.1957 15.07565299184448
NUSAT 1
1 41557U 16033B   19247.88008034  .00001170  00000-0  46365-4 0  9996
2 41557  97.4165 334.9260 0014450  28.2370 331.9650 15.27342814182026
BEESAT 4
1 41619U 16040W   19247.88791394 +.00001273 +00000-0 +56566-4 0  9999
2 41619 097.3610 308.6327 0012995 106.7925 253.4739 15.23264327165767
PRATHAM
1 41783U 16059A   19247.70481352 +.00000022 +00000-0 +13513-4 0  9998
2 41783 098.0605 305.5364 0034577 137.1558 223.2348 14.63006766156954
ALSAT 1N
1 41789U 16059G   19247.90024133  .00000086  00000-0  25265-4 0  9993
2 41789  98.0641 307.8933 0029466 125.8077 234.5868 14.64259054157097
NAYIF 1
1 42017U 17008BX  19247.74997117 +.00001390 +00000-0 +57432-4 0  9996
2 42017 097.3972 314.0214 0004623 248.1138 111.9609 15.25677210141829
MAX VALIER SAT
1 42778U 17036P   19247.76237976  .00000835  00000-0  39415-4 0  9997
2 42778  97.3476 303.6836 0011016 316.0090  44.0269 15.22111417122110
